Index of /20260503/WXO-DD/model_caps/3km/00/035
Name Last modified Size Description
Parent Directory -
20260503T00Z_MSC_CAPS_AbsoluteVorticity_IsbL-0250_RLatLon0.03_PT035H.grib2 2026-05-03 06:16 1.0M
20260503T00Z_MSC_CAPS_AbsoluteVorticity_IsbL-0500_RLatLon0.03_PT035H.grib2 2026-05-03 06:16 1.1M
20260503T00Z_MSC_CAPS_AbsoluteVorticity_IsbL-0700_RLatLon0.03_PT035H.grib2 2026-05-03 06:16 1.1M
20260503T00Z_MSC_CAPS_AbsoluteVorticity_IsbL-0850_RLatLon0.03_PT035H.grib2 2026-05-03 06:16 1.3M
20260503T00Z_MSC_CAPS_AbsoluteVorticity_IsbL-1000_RLatLon0.03_PT035H.grib2 2026-05-03 06:16 1.4M
20260503T00Z_MSC_CAPS_AirDensity_AGL-120m_RLatLon0.03_PT035H.grib2 2026-05-03 06:16 1.4M
20260503T00Z_MSC_CAPS_AirDensity_AGL-40m_RLatLon0.03_PT035H.grib2 2026-05-03 06:16 1.4M
20260503T00Z_MSC_CAPS_AirDensity_AGL-80m_RLatLon0.03_PT035H.grib2 2026-05-03 06:16 1.4M
20260503T00Z_MSC_CAPS_AirTemp_AGL-120m_RLatLon0.03_PT035H.grib2 2026-05-03 06:16 1.4M
20260503T00Z_MSC_CAPS_AirTemp_AGL-2m_RLatLon0.03_PT035H.grib2 2026-05-03 06:16 1.7M
20260503T00Z_MSC_CAPS_AirTemp_AGL-40m_RLatLon0.03_PT035H.grib2 2026-05-03 06:16 1.5M
20260503T00Z_MSC_CAPS_AirTemp_AGL-80m_RLatLon0.03_PT035H.grib2 2026-05-03 06:16 1.4M
20260503T00Z_MSC_CAPS_AirTemp_IsbL-0050_RLatLon0.03_PT035H.grib2 2026-05-03 06:16 684K
20260503T00Z_MSC_CAPS_AirTemp_IsbL-0100_RLatLon0.03_PT035H.grib2 2026-05-03 06:16 963K
20260503T00Z_MSC_CAPS_AirTemp_IsbL-0150_RLatLon0.03_PT035H.grib2 2026-05-03 06:16 745K
20260503T00Z_MSC_CAPS_AirTemp_IsbL-0175_RLatLon0.03_PT035H.grib2 2026-05-03 06:16 764K
20260503T00Z_MSC_CAPS_AirTemp_IsbL-0200_RLatLon0.03_PT035H.grib2 2026-05-03 06:16 782K
20260503T00Z_MSC_CAPS_AirTemp_IsbL-0225_RLatLon0.03_PT035H.grib2 2026-05-03 06:16 790K
20260503T00Z_MSC_CAPS_AirTemp_IsbL-0250_RLatLon0.03_PT035H.grib2 2026-05-03 06:16 783K
20260503T00Z_MSC_CAPS_AirTemp_IsbL-0275_RLatLon0.03_PT035H.grib2 2026-05-03 06:16 773K
20260503T00Z_MSC_CAPS_AirTemp_IsbL-0300_RLatLon0.03_PT035H.grib2 2026-05-03 06:16 1.0M
20260503T00Z_MSC_CAPS_AirTemp_IsbL-0350_RLatLon0.03_PT035H.grib2 2026-05-03 06:16 741K
20260503T00Z_MSC_CAPS_AirTemp_IsbL-0400_RLatLon0.03_PT035H.grib2 2026-05-03 06:16 749K
20260503T00Z_MSC_CAPS_AirTemp_IsbL-0450_RLatLon0.03_PT035H.grib2 2026-05-03 06:16 769K
20260503T00Z_MSC_CAPS_AirTemp_IsbL-0500_RLatLon0.03_PT035H.grib2 2026-05-03 06:16 787K
20260503T00Z_MSC_CAPS_AirTemp_IsbL-0550_RLatLon0.03_PT035H.grib2 2026-05-03 06:16 801K
20260503T00Z_MSC_CAPS_AirTemp_IsbL-0600_RLatLon0.03_PT035H.grib2 2026-05-03 06:16 971K
20260503T00Z_MSC_CAPS_AirTemp_IsbL-0650_RLatLon0.03_PT035H.grib2 2026-05-03 06:16 1.0M
20260503T00Z_MSC_CAPS_AirTemp_IsbL-0700_RLatLon0.03_PT035H.grib2 2026-05-03 06:16 1.0M
20260503T00Z_MSC_CAPS_AirTemp_IsbL-0750_RLatLon0.03_PT035H.grib2 2026-05-03 06:16 1.0M
20260503T00Z_MSC_CAPS_AirTemp_IsbL-0800_RLatLon0.03_PT035H.grib2 2026-05-03 06:16 1.0M
20260503T00Z_MSC_CAPS_AirTemp_IsbL-0850_RLatLon0.03_PT035H.grib2 2026-05-03 06:16 1.0M
20260503T00Z_MSC_CAPS_AirTemp_IsbL-0875_RLatLon0.03_PT035H.grib2 2026-05-03 06:16 1.0M
20260503T00Z_MSC_CAPS_AirTemp_IsbL-0900_RLatLon0.03_PT035H.grib2 2026-05-03 06:16 1.0M
20260503T00Z_MSC_CAPS_AirTemp_IsbL-0925_RLatLon0.03_PT035H.grib2 2026-05-03 06:16 1.1M
20260503T00Z_MSC_CAPS_AirTemp_IsbL-0950_RLatLon0.03_PT035H.grib2 2026-05-03 06:16 1.1M
20260503T00Z_MSC_CAPS_AirTemp_IsbL-0970_RLatLon0.03_PT035H.grib2 2026-05-03 06:16 1.1M
20260503T00Z_MSC_CAPS_AirTemp_IsbL-0985_RLatLon0.03_PT035H.grib2 2026-05-03 06:16 1.1M
20260503T00Z_MSC_CAPS_AirTemp_IsbL-1000_RLatLon0.03_PT035H.grib2 2026-05-03 06:16 1.1M
20260503T00Z_MSC_CAPS_AirTemp_IsbL-1015_RLatLon0.03_PT035H.grib2 2026-05-03 06:16 1.1M
20260503T00Z_MSC_CAPS_Albedo_Sfc_RLatLon0.03_PT035H.grib2 2026-05-03 06:16 2.7M
20260503T00Z_MSC_CAPS_CAPE_Sfc_RLatLon0.03_PT035H.grib2 2026-05-03 06:16 225K
20260503T00Z_MSC_CAPS_CloudWater_EAtm_RLatLon0.03_PT035H.grib2 2026-05-03 06:16 1.5M
20260503T00Z_MSC_CAPS_ConvectivePrecip-Accum_Sfc_RLatLon0.03_PT035H.grib2 2026-05-03 06:16 4.6M
20260503T00Z_MSC_CAPS_DewPointDepression_AGL-120m_RLatLon0.03_PT035H.grib2 2026-05-03 06:16 2.0M
20260503T00Z_MSC_CAPS_DewPointDepression_AGL-2m_RLatLon0.03_PT035H.grib2 2026-05-03 06:16 2.1M
20260503T00Z_MSC_CAPS_DewPointDepression_AGL-40m_RLatLon0.03_PT035H.grib2 2026-05-03 06:16 2.1M
20260503T00Z_MSC_CAPS_DewPointDepression_AGL-80m_RLatLon0.03_PT035H.grib2 2026-05-03 06:16 2.1M
20260503T00Z_MSC_CAPS_DewPointDepression_IsbL-0050_RLatLon0.03_PT035H.grib2 2026-05-03 06:16 11K
20260503T00Z_MSC_CAPS_DewPointDepression_IsbL-0100_RLatLon0.03_PT035H.grib2 2026-05-03 06:16 88K
20260503T00Z_MSC_CAPS_DewPointDepression_IsbL-0150_RLatLon0.03_PT035H.grib2 2026-05-03 06:16 88K
20260503T00Z_MSC_CAPS_DewPointDepression_IsbL-0175_RLatLon0.03_PT035H.grib2 2026-05-03 06:16 211K
20260503T00Z_MSC_CAPS_DewPointDepression_IsbL-0200_RLatLon0.03_PT035H.grib2 2026-05-03 06:16 386K
20260503T00Z_MSC_CAPS_DewPointDepression_IsbL-0225_RLatLon0.03_PT035H.grib2 2026-05-03 06:16 662K
20260503T00Z_MSC_CAPS_DewPointDepression_IsbL-0250_RLatLon0.03_PT035H.grib2 2026-05-03 06:16 863K
20260503T00Z_MSC_CAPS_DewPointDepression_IsbL-0275_RLatLon0.03_PT035H.grib2 2026-05-03 06:16 1.0M
20260503T00Z_MSC_CAPS_DewPointDepression_IsbL-0300_RLatLon0.03_PT035H.grib2 2026-05-03 06:16 1.0M
20260503T00Z_MSC_CAPS_DewPointDepression_IsbL-0350_RLatLon0.03_PT035H.grib2 2026-05-03 06:16 1.1M
20260503T00Z_MSC_CAPS_DewPointDepression_IsbL-0400_RLatLon0.03_PT035H.grib2 2026-05-03 06:16 1.1M
20260503T00Z_MSC_CAPS_DewPointDepression_IsbL-0450_RLatLon0.03_PT035H.grib2 2026-05-03 06:16 1.1M
20260503T00Z_MSC_CAPS_DewPointDepression_IsbL-0500_RLatLon0.03_PT035H.grib2 2026-05-03 06:16 1.2M
20260503T00Z_MSC_CAPS_DewPointDepression_IsbL-0550_RLatLon0.03_PT035H.grib2 2026-05-03 06:16 1.2M
20260503T00Z_MSC_CAPS_DewPointDepression_IsbL-0600_RLatLon0.03_PT035H.grib2 2026-05-03 06:16 1.3M
20260503T00Z_MSC_CAPS_DewPointDepression_IsbL-0650_RLatLon0.03_PT035H.grib2 2026-05-03 06:16 1.3M
20260503T00Z_MSC_CAPS_DewPointDepression_IsbL-0700_RLatLon0.03_PT035H.grib2 2026-05-03 06:16 1.3M
20260503T00Z_MSC_CAPS_DewPointDepression_IsbL-0750_RLatLon0.03_PT035H.grib2 2026-05-03 06:16 1.3M
20260503T00Z_MSC_CAPS_DewPointDepression_IsbL-0800_RLatLon0.03_PT035H.grib2 2026-05-03 06:16 1.4M
20260503T00Z_MSC_CAPS_DewPointDepression_IsbL-0850_RLatLon0.03_PT035H.grib2 2026-05-03 06:16 1.4M
20260503T00Z_MSC_CAPS_DewPointDepression_IsbL-0875_RLatLon0.03_PT035H.grib2 2026-05-03 06:16 1.4M
20260503T00Z_MSC_CAPS_DewPointDepression_IsbL-0900_RLatLon0.03_PT035H.grib2 2026-05-03 06:16 1.4M
20260503T00Z_MSC_CAPS_DewPointDepression_IsbL-0925_RLatLon0.03_PT035H.grib2 2026-05-03 06:16 1.4M
20260503T00Z_MSC_CAPS_DewPointDepression_IsbL-0950_RLatLon0.03_PT035H.grib2 2026-05-03 06:16 1.4M
20260503T00Z_MSC_CAPS_DewPointDepression_IsbL-0970_RLatLon0.03_PT035H.grib2 2026-05-03 06:16 1.4M
20260503T00Z_MSC_CAPS_DewPointDepression_IsbL-0985_RLatLon0.03_PT035H.grib2 2026-05-03 06:16 1.3M
20260503T00Z_MSC_CAPS_DewPointDepression_IsbL-1000_RLatLon0.03_PT035H.grib2 2026-05-03 06:16 1.3M
20260503T00Z_MSC_CAPS_DewPointDepression_IsbL-1015_RLatLon0.03_PT035H.grib2 2026-05-03 06:16 1.3M
20260503T00Z_MSC_CAPS_DewPoint_AGL-120m_RLatLon0.03_PT035H.grib2 2026-05-03 06:16 3.6M
20260503T00Z_MSC_CAPS_DewPoint_AGL-2m_RLatLon0.03_PT035H.grib2 2026-05-03 06:16 1.8M
20260503T00Z_MSC_CAPS_DewPoint_AGL-40m_RLatLon0.03_PT035H.grib2 2026-05-03 06:16 3.7M
20260503T00Z_MSC_CAPS_DewPoint_AGL-80m_RLatLon0.03_PT035H.grib2 2026-05-03 06:16 3.7M
20260503T00Z_MSC_CAPS_DownwardLongwaveRadiationFlux-Accum_Sfc_RLatLon0.03_PT035H.grib2 2026-05-03 06:16 2.5M
20260503T00Z_MSC_CAPS_DownwardShortwaveRadiationFlux-Accum_NTAtm_RLatLon0.03_PT035H.grib2 2026-05-03 06:16 488K
20260503T00Z_MSC_CAPS_DownwardShortwaveRadiationFlux-Accum_Sfc_RLatLon0.03_PT035H.grib2 2026-05-03 06:16 2.8M
20260503T00Z_MSC_CAPS_FreezingRain-Accum_Sfc_RLatLon0.03_PT035H.grib2 2026-05-03 06:16 867K
20260503T00Z_MSC_CAPS_GeopotentialHeight_IsbL-0050_RLatLon0.03_PT035H.grib2 2026-05-03 06:16 641K
20260503T00Z_MSC_CAPS_GeopotentialHeight_IsbL-0100_RLatLon0.03_PT035H.grib2 2026-05-03 06:16 766K
20260503T00Z_MSC_CAPS_GeopotentialHeight_IsbL-0150_RLatLon0.03_PT035H.grib2 2026-05-03 06:16 716K
20260503T00Z_MSC_CAPS_GeopotentialHeight_IsbL-0175_RLatLon0.03_PT035H.grib2 2026-05-03 06:16 728K
20260503T00Z_MSC_CAPS_GeopotentialHeight_IsbL-0200_RLatLon0.03_PT035H.grib2 2026-05-03 06:16 743K
20260503T00Z_MSC_CAPS_GeopotentialHeight_IsbL-0225_RLatLon0.03_PT035H.grib2 2026-05-03 06:16 755K
20260503T00Z_MSC_CAPS_GeopotentialHeight_IsbL-0250_RLatLon0.03_PT035H.grib2 2026-05-03 06:16 768K
20260503T00Z_MSC_CAPS_GeopotentialHeight_IsbL-0275_RLatLon0.03_PT035H.grib2 2026-05-03 06:16 778K
20260503T00Z_MSC_CAPS_GeopotentialHeight_IsbL-0300_RLatLon0.03_PT035H.grib2 2026-05-03 06:16 784K
20260503T00Z_MSC_CAPS_GeopotentialHeight_IsbL-0350_RLatLon0.03_PT035H.grib2 2026-05-03 06:16 785K
20260503T00Z_MSC_CAPS_GeopotentialHeight_IsbL-0400_RLatLon0.03_PT035H.grib2 2026-05-03 06:16 780K
20260503T00Z_MSC_CAPS_GeopotentialHeight_IsbL-0450_RLatLon0.03_PT035H.grib2 2026-05-03 06:16 772K
20260503T00Z_MSC_CAPS_GeopotentialHeight_IsbL-0500_RLatLon0.03_PT035H.grib2 2026-05-03 06:16 765K
20260503T00Z_MSC_CAPS_GeopotentialHeight_IsbL-0550_RLatLon0.03_PT035H.grib2 2026-05-03 06:16 641K
20260503T00Z_MSC_CAPS_GeopotentialHeight_IsbL-0600_RLatLon0.03_PT035H.grib2 2026-05-03 06:16 637K
20260503T00Z_MSC_CAPS_GeopotentialHeight_IsbL-0650_RLatLon0.03_PT035H.grib2 2026-05-03 06:16 812K
20260503T00Z_MSC_CAPS_GeopotentialHeight_IsbL-0700_RLatLon0.03_PT035H.grib2 2026-05-03 06:16 813K
20260503T00Z_MSC_CAPS_GeopotentialHeight_IsbL-0750_RLatLon0.03_PT035H.grib2 2026-05-03 06:16 815K
20260503T00Z_MSC_CAPS_GeopotentialHeight_IsbL-0800_RLatLon0.03_PT035H.grib2 2026-05-03 06:16 818K
20260503T00Z_MSC_CAPS_GeopotentialHeight_IsbL-0850_RLatLon0.03_PT035H.grib2 2026-05-03 06:16 829K
20260503T00Z_MSC_CAPS_GeopotentialHeight_IsbL-0875_RLatLon0.03_PT035H.grib2 2026-05-03 06:16 837K
20260503T00Z_MSC_CAPS_GeopotentialHeight_IsbL-0900_RLatLon0.03_PT035H.grib2 2026-05-03 06:16 846K
20260503T00Z_MSC_CAPS_GeopotentialHeight_IsbL-0925_RLatLon0.03_PT035H.grib2 2026-05-03 06:16 837K
20260503T00Z_MSC_CAPS_GeopotentialHeight_IsbL-0950_RLatLon0.03_PT035H.grib2 2026-05-03 06:16 864K
20260503T00Z_MSC_CAPS_GeopotentialHeight_IsbL-0970_RLatLon0.03_PT035H.grib2 2026-05-03 06:16 875K
20260503T00Z_MSC_CAPS_GeopotentialHeight_IsbL-0985_RLatLon0.03_PT035H.grib2 2026-05-03 06:16 883K
20260503T00Z_MSC_CAPS_GeopotentialHeight_IsbL-1000_RLatLon0.03_PT035H.grib2 2026-05-03 06:16 692K
20260503T00Z_MSC_CAPS_GeopotentialHeight_IsbL-1015_RLatLon0.03_PT035H.grib2 2026-05-03 06:16 699K
20260503T00Z_MSC_CAPS_GeopotentialHeight_Sfc_RLatLon0.03_PT035H.grib2 2026-05-03 06:16 1.0M
20260503T00Z_MSC_CAPS_IcePellets-Accum_Sfc_RLatLon0.03_PT035H.grib2 2026-05-03 06:16 55K
20260503T00Z_MSC_CAPS_LatentHeatNetFlux_Sfc_RLatLon0.03_PT035H.grib2 2026-05-03 06:16 1.7M
20260503T00Z_MSC_CAPS_LiftedIndex-MU-VT_IsbL-0500_RLatLon0.03_PT035H.grib2 2026-05-03 06:16 3.4M
20260503T00Z_MSC_CAPS_MixedLayerThickness_Sfc_RLatLon0.03_PT035H.nc 2026-05-03 06:12 16M
20260503T00Z_MSC_CAPS_NetLongwaveRadiationFlux-Accum_Sfc_RLatLon0.03_PT035H.grib2 2026-05-03 06:16 2.7M
20260503T00Z_MSC_CAPS_NetShortwaveRadiationFlux-Accum_Sfc_RLatLon0.03_PT035H.grib2 2026-05-03 06:16 2.8M
20260503T00Z_MSC_CAPS_PlanetaryBoundaryLayerHeight_Sfc_RLatLon0.03_PT035H.grib2 2026-05-03 06:16 2.4M
20260503T00Z_MSC_CAPS_Precip-Accum_Sfc_RLatLon0.03_PT035H.grib2 2026-05-03 06:16 5.4M
20260503T00Z_MSC_CAPS_PrecipRate_Sfc_RLatLon0.03_PT035H.grib2 2026-05-03 06:16 683K
20260503T00Z_MSC_CAPS_PrecipType-Instant_Sfc_RLatLon0.03_PT035H.grib2 2026-05-03 06:16 2.0M
20260503T00Z_MSC_CAPS_Pressure_MSL_RLatLon0.03_PT035H.grib2 2026-05-03 06:16 927K
20260503T00Z_MSC_CAPS_Pressure_Sfc_RLatLon0.03_PT035H.grib2 2026-05-03 06:16 1.2M
20260503T00Z_MSC_CAPS_RadiativeTemp_Sfc_RLatLon0.03_PT035H.grib2 2026-05-03 06:16 2.1M
20260503T00Z_MSC_CAPS_Rain-Accum_Sfc_RLatLon0.03_PT035H.grib2 2026-05-03 06:16 2.7M
20260503T00Z_MSC_CAPS_RelativeHumidity_AGL-120m_RLatLon0.03_PT035H.grib2 2026-05-03 06:16 2.8M
20260503T00Z_MSC_CAPS_RelativeHumidity_AGL-2m_RLatLon0.03_PT035H.grib2 2026-05-03 06:16 2.9M
20260503T00Z_MSC_CAPS_RelativeHumidity_AGL-40m_RLatLon0.03_PT035H.grib2 2026-05-03 06:16 2.9M
20260503T00Z_MSC_CAPS_RelativeHumidity_AGL-80m_RLatLon0.03_PT035H.grib2 2026-05-03 06:16 2.8M
20260503T00Z_MSC_CAPS_RelativeHumidity_IsbL-0050_RLatLon0.03_PT035H.grib2 2026-05-03 06:16 1.0M
20260503T00Z_MSC_CAPS_RelativeHumidity_IsbL-0100_RLatLon0.03_PT035H.grib2 2026-05-03 06:16 887K
20260503T00Z_MSC_CAPS_RelativeHumidity_IsbL-0150_RLatLon0.03_PT035H.grib2 2026-05-03 06:16 617K
20260503T00Z_MSC_CAPS_RelativeHumidity_IsbL-0175_RLatLon0.03_PT035H.grib2 2026-05-03 06:16 488K
20260503T00Z_MSC_CAPS_RelativeHumidity_IsbL-0200_RLatLon0.03_PT035H.grib2 2026-05-03 06:16 648K
20260503T00Z_MSC_CAPS_RelativeHumidity_IsbL-0225_RLatLon0.03_PT035H.grib2 2026-05-03 06:16 880K
20260503T00Z_MSC_CAPS_RelativeHumidity_IsbL-0250_RLatLon0.03_PT035H.grib2 2026-05-03 06:16 1.1M
20260503T00Z_MSC_CAPS_RelativeHumidity_IsbL-0275_RLatLon0.03_PT035H.grib2 2026-05-03 06:16 1.4M
20260503T00Z_MSC_CAPS_RelativeHumidity_IsbL-0300_RLatLon0.03_PT035H.grib2 2026-05-03 06:16 1.7M
20260503T00Z_MSC_CAPS_RelativeHumidity_IsbL-0350_RLatLon0.03_PT035H.grib2 2026-05-03 06:16 1.9M
20260503T00Z_MSC_CAPS_RelativeHumidity_IsbL-0400_RLatLon0.03_PT035H.grib2 2026-05-03 06:16 2.1M
20260503T00Z_MSC_CAPS_RelativeHumidity_IsbL-0450_RLatLon0.03_PT035H.grib2 2026-05-03 06:16 2.0M
20260503T00Z_MSC_CAPS_RelativeHumidity_IsbL-0500_RLatLon0.03_PT035H.grib2 2026-05-03 06:16 2.2M
20260503T00Z_MSC_CAPS_RelativeHumidity_IsbL-0550_RLatLon0.03_PT035H.grib2 2026-05-03 06:16 2.2M
20260503T00Z_MSC_CAPS_RelativeHumidity_IsbL-0600_RLatLon0.03_PT035H.grib2 2026-05-03 06:16 2.3M
20260503T00Z_MSC_CAPS_RelativeHumidity_IsbL-0650_RLatLon0.03_PT035H.grib2 2026-05-03 06:16 2.3M
20260503T00Z_MSC_CAPS_RelativeHumidity_IsbL-0700_RLatLon0.03_PT035H.grib2 2026-05-03 06:16 2.4M
20260503T00Z_MSC_CAPS_RelativeHumidity_IsbL-0750_RLatLon0.03_PT035H.grib2 2026-05-03 06:16 2.4M
20260503T00Z_MSC_CAPS_RelativeHumidity_IsbL-0800_RLatLon0.03_PT035H.grib2 2026-05-03 06:16 2.5M
20260503T00Z_MSC_CAPS_RelativeHumidity_IsbL-0850_RLatLon0.03_PT035H.grib2 2026-05-03 06:16 2.5M
20260503T00Z_MSC_CAPS_RelativeHumidity_IsbL-0875_RLatLon0.03_PT035H.grib2 2026-05-03 06:16 2.6M
20260503T00Z_MSC_CAPS_RelativeHumidity_IsbL-0900_RLatLon0.03_PT035H.grib2 2026-05-03 06:16 2.7M
20260503T00Z_MSC_CAPS_RelativeHumidity_IsbL-0925_RLatLon0.03_PT035H.grib2 2026-05-03 06:16 2.7M
20260503T00Z_MSC_CAPS_RelativeHumidity_IsbL-0950_RLatLon0.03_PT035H.grib2 2026-05-03 06:16 2.7M
20260503T00Z_MSC_CAPS_RelativeHumidity_IsbL-0970_RLatLon0.03_PT035H.grib2 2026-05-03 06:16 2.8M
20260503T00Z_MSC_CAPS_RelativeHumidity_IsbL-0985_RLatLon0.03_PT035H.grib2 2026-05-03 06:16 2.8M
20260503T00Z_MSC_CAPS_RelativeHumidity_IsbL-1000_RLatLon0.03_PT035H.grib2 2026-05-03 06:16 2.9M
20260503T00Z_MSC_CAPS_RelativeHumidity_IsbL-1015_RLatLon0.03_PT035H.grib2 2026-05-03 06:16 2.9M
20260503T00Z_MSC_CAPS_Runoff-Accum_Sfc_RLatLon0.03_PT035H.grib2 2026-05-03 06:16 295K
20260503T00Z_MSC_CAPS_SeaIceAreaFraction_Sfc_RLatLon0.03_PT035H.nc 2026-05-03 06:12 15M
20260503T00Z_MSC_CAPS_SeaIceCompressiveStrength_Sfc_RLatLon0.03_PT035H.nc 2026-05-03 06:12 15M
20260503T00Z_MSC_CAPS_SeaIceDivergence_Sfc_RLatLon0.03_PT035H.nc 2026-05-03 06:12 15M
20260503T00Z_MSC_CAPS_SeaIceInternalPressure_Sfc_RLatLon0.03_PT035H.nc 2026-05-03 06:12 15M
20260503T00Z_MSC_CAPS_SeaIceShear_Sfc_RLatLon0.03_PT035H.nc 2026-05-03 06:12 14M
20260503T00Z_MSC_CAPS_SeaIceSnowTemp_Sfc_RLatLon0.03_PT035H.nc 2026-05-03 06:12 14M
20260503T00Z_MSC_CAPS_SeaIceSnowVolume_Sfc_RLatLon0.03_PT035H.nc 2026-05-03 06:12 15M
20260503T00Z_MSC_CAPS_SeaIceVelocityX_Sfc_RLatLon0.03_PT035H.nc 2026-05-03 06:12 15M
20260503T00Z_MSC_CAPS_SeaIceVelocityY_Sfc_RLatLon0.03_PT035H.nc 2026-05-03 06:12 15M
20260503T00Z_MSC_CAPS_SeaIceVolume_Sfc_RLatLon0.03_PT035H.nc 2026-05-03 06:12 15M
20260503T00Z_MSC_CAPS_SeaSurfaceHeight_Sfc_RLatLon0.03_PT035H.nc 2026-05-03 06:12 16M
20260503T00Z_MSC_CAPS_SeaWaterSalinity_DBS-0.5m_RLatLon0.03_PT035H.nc 2026-05-03 06:12 16M
20260503T00Z_MSC_CAPS_SeaWaterSalinity_DBS-all_RLatLon0.03_PT035H.nc 2026-05-03 06:12 107M
20260503T00Z_MSC_CAPS_SeaWaterTemp_DBS-0.5m_RLatLon0.03_PT035H.nc 2026-05-03 06:12 14M
20260503T00Z_MSC_CAPS_SeaWaterTemp_DBS-all_RLatLon0.03_PT035H.nc 2026-05-03 06:12 88M
20260503T00Z_MSC_CAPS_SeaWaterVelocityX_DBS-0.5m_RLatLon0.03_PT035H.nc 2026-05-03 06:12 17M
20260503T00Z_MSC_CAPS_SeaWaterVelocityX_DBS-all_RLatLon0.03_PT035H.nc 2026-05-03 06:12 207M
20260503T00Z_MSC_CAPS_SeaWaterVelocityY_DBS-0.5m_RLatLon0.03_PT035H.nc 2026-05-03 06:12 17M
20260503T00Z_MSC_CAPS_SeaWaterVelocityY_DBS-all_RLatLon0.03_PT035H.nc 2026-05-03 06:12 213M
20260503T00Z_MSC_CAPS_SensibleHeatNetFlux_Sfc_RLatLon0.03_PT035H.grib2 2026-05-03 06:16 2.0M
20260503T00Z_MSC_CAPS_ShowalterIndex_IsbL-0500_RLatLon0.03_PT035H.grib2 2026-05-03 06:16 4.3M
20260503T00Z_MSC_CAPS_Snow-Accum_Sfc_RLatLon0.03_PT035H.grib2 2026-05-03 06:16 4.1M
20260503T00Z_MSC_CAPS_SnowDensity_Sfc_RLatLon0.03_PT035H.grib2 2026-05-03 06:16 1.3M
20260503T00Z_MSC_CAPS_SnowDepthWaterEquivalent_Sfc_RLatLon0.03_PT035H.grib2 2026-05-03 06:16 661K
20260503T00Z_MSC_CAPS_SnowDepth_Sfc_RLatLon0.03_PT035H.grib2 2026-05-03 06:16 1.1M
20260503T00Z_MSC_CAPS_SoilTemp_DBS-0to10cm_RLatLon0.03_PT035H.grib2 2026-05-03 06:16 1.6M
20260503T00Z_MSC_CAPS_SoilTemp_Sfc_RLatLon0.03_PT035H.grib2 2026-05-03 06:16 1.8M
20260503T00Z_MSC_CAPS_SoilVolumetricIceContent_Sfc_RLatLon0.03_PT035H.grib2 2026-05-03 06:16 1.4M
20260503T00Z_MSC_CAPS_SoilVolumetricWaterContent_DBS-0to10cm_RLatLon0.03_PT035H.grib2 2026-05-03 06:16 1.3M
20260503T00Z_MSC_CAPS_SoilVolumetricWaterContent_DBS-0to1cm_RLatLon0.03_PT035H.grib2 2026-05-03 06:16 1.7M
20260503T00Z_MSC_CAPS_SpecificHumidity_AGL-120m_RLatLon0.03_PT035H.grib2 2026-05-03 06:16 1.8M
20260503T00Z_MSC_CAPS_SpecificHumidity_AGL-2m_RLatLon0.03_PT035H.grib2 2026-05-03 06:16 1.7M
20260503T00Z_MSC_CAPS_SpecificHumidity_AGL-40m_RLatLon0.03_PT035H.grib2 2026-05-03 06:16 1.9M
20260503T00Z_MSC_CAPS_SpecificHumidity_AGL-80m_RLatLon0.03_PT035H.grib2 2026-05-03 06:16 1.8M
20260503T00Z_MSC_CAPS_SpecificHumidity_IsbL-0050_RLatLon0.03_PT035H.grib2 2026-05-03 06:16 919K
20260503T00Z_MSC_CAPS_SpecificHumidity_IsbL-0100_RLatLon0.03_PT035H.grib2 2026-05-03 06:16 1.1M
20260503T00Z_MSC_CAPS_SpecificHumidity_IsbL-0150_RLatLon0.03_PT035H.grib2 2026-05-03 06:16 1.0M
20260503T00Z_MSC_CAPS_SpecificHumidity_IsbL-0175_RLatLon0.03_PT035H.grib2 2026-05-03 06:16 1.0M
20260503T00Z_MSC_CAPS_SpecificHumidity_IsbL-0200_RLatLon0.03_PT035H.grib2 2026-05-03 06:16 889K
20260503T00Z_MSC_CAPS_SpecificHumidity_IsbL-0225_RLatLon0.03_PT035H.grib2 2026-05-03 06:16 857K
20260503T00Z_MSC_CAPS_SpecificHumidity_IsbL-0250_RLatLon0.03_PT035H.grib2 2026-05-03 06:16 1.1M
20260503T00Z_MSC_CAPS_SpecificHumidity_IsbL-0275_RLatLon0.03_PT035H.grib2 2026-05-03 06:16 1.1M
20260503T00Z_MSC_CAPS_SpecificHumidity_IsbL-0300_RLatLon0.03_PT035H.grib2 2026-05-03 06:16 1.0M
20260503T00Z_MSC_CAPS_SpecificHumidity_IsbL-0350_RLatLon0.03_PT035H.grib2 2026-05-03 06:16 962K
20260503T00Z_MSC_CAPS_SpecificHumidity_IsbL-0400_RLatLon0.03_PT035H.grib2 2026-05-03 06:16 953K
20260503T00Z_MSC_CAPS_SpecificHumidity_IsbL-0450_RLatLon0.03_PT035H.grib2 2026-05-03 06:16 1.1M
20260503T00Z_MSC_CAPS_SpecificHumidity_IsbL-0500_RLatLon0.03_PT035H.grib2 2026-05-03 06:16 1.1M
20260503T00Z_MSC_CAPS_SpecificHumidity_IsbL-0550_RLatLon0.03_PT035H.grib2 2026-05-03 06:16 1.2M
20260503T00Z_MSC_CAPS_SpecificHumidity_IsbL-0600_RLatLon0.03_PT035H.grib2 2026-05-03 06:16 1.4M
20260503T00Z_MSC_CAPS_SpecificHumidity_IsbL-0650_RLatLon0.03_PT035H.grib2 2026-05-03 06:16 1.5M
20260503T00Z_MSC_CAPS_SpecificHumidity_IsbL-0700_RLatLon0.03_PT035H.grib2 2026-05-03 06:16 1.3M
20260503T00Z_MSC_CAPS_SpecificHumidity_IsbL-0750_RLatLon0.03_PT035H.grib2 2026-05-03 06:16 1.4M
20260503T00Z_MSC_CAPS_SpecificHumidity_IsbL-0800_RLatLon0.03_PT035H.grib2 2026-05-03 06:16 1.6M
20260503T00Z_MSC_CAPS_SpecificHumidity_IsbL-0850_RLatLon0.03_PT035H.grib2 2026-05-03 06:16 1.7M
20260503T00Z_MSC_CAPS_SpecificHumidity_IsbL-0875_RLatLon0.03_PT035H.grib2 2026-05-03 06:16 1.8M
20260503T00Z_MSC_CAPS_SpecificHumidity_IsbL-0900_RLatLon0.03_PT035H.grib2 2026-05-03 06:16 1.9M
20260503T00Z_MSC_CAPS_SpecificHumidity_IsbL-0925_RLatLon0.03_PT035H.grib2 2026-05-03 06:16 1.9M
20260503T00Z_MSC_CAPS_SpecificHumidity_IsbL-0950_RLatLon0.03_PT035H.grib2 2026-05-03 06:16 2.0M
20260503T00Z_MSC_CAPS_SpecificHumidity_IsbL-0970_RLatLon0.03_PT035H.grib2 2026-05-03 06:16 2.0M
20260503T00Z_MSC_CAPS_SpecificHumidity_IsbL-0985_RLatLon0.03_PT035H.grib2 2026-05-03 06:16 2.1M
20260503T00Z_MSC_CAPS_SpecificHumidity_IsbL-1000_RLatLon0.03_PT035H.grib2 2026-05-03 06:16 1.7M
20260503T00Z_MSC_CAPS_SpecificHumidity_IsbL-1015_RLatLon0.03_PT035H.grib2 2026-05-03 06:16 1.7M
20260503T00Z_MSC_CAPS_SpecificHumidity_Sfc_RLatLon0.03_PT035H.grib2 2026-05-03 06:16 2.0M
20260503T00Z_MSC_CAPS_StormRelativeHelicity_Sfc_RLatLon0.03_PT035H.grib2 2026-05-03 06:16 3.3M
20260503T00Z_MSC_CAPS_Thickness_IsbL-1000to0500_RLatLon0.03_PT035H.grib2 2026-05-03 06:16 467K
20260503T00Z_MSC_CAPS_TotalCloudCover_Sfc_RLatLon0.03_PT035H.grib2 2026-05-03 06:16 3.6M
20260503T00Z_MSC_CAPS_TurboclineDepth_Sfc_RLatLon0.03_PT035H.nc 2026-05-03 06:12 16M
20260503T00Z_MSC_CAPS_UpwardLongwaveRadiationFlux_NTAtm_RLatLon0.03_PT035H.grib2 2026-05-03 06:16 3.0M
20260503T00Z_MSC_CAPS_UpwardShortwaveRadiationFlux_NTAtm_RLatLon0.03_PT035H.grib2 2026-05-03 06:16 2.1M
20260503T00Z_MSC_CAPS_VerticalVelocity_IsbL-0250_RLatLon0.03_PT035H.grib2 2026-05-03 06:16 916K
20260503T00Z_MSC_CAPS_VerticalVelocity_IsbL-0500_RLatLon0.03_PT035H.grib2 2026-05-03 06:16 1.1M
20260503T00Z_MSC_CAPS_VerticalVelocity_IsbL-0700_RLatLon0.03_PT035H.grib2 2026-05-03 06:16 1.3M
20260503T00Z_MSC_CAPS_VerticalVelocity_IsbL-0850_RLatLon0.03_PT035H.grib2 2026-05-03 06:16 1.5M
20260503T00Z_MSC_CAPS_VerticalVelocity_IsbL-1000_RLatLon0.03_PT035H.grib2 2026-05-03 06:16 1.4M
20260503T00Z_MSC_CAPS_WindDir_AGL-10m_RLatLon0.03_PT035H.grib2 2026-05-03 06:16 2.4M
20260503T00Z_MSC_CAPS_WindDir_AGL-120m_RLatLon0.03_PT035H.grib2 2026-05-03 06:16 1.2M
20260503T00Z_MSC_CAPS_WindDir_AGL-40m_RLatLon0.03_PT035H.grib2 2026-05-03 06:16 1.4M
20260503T00Z_MSC_CAPS_WindDir_AGL-80m_RLatLon0.03_PT035H.grib2 2026-05-03 06:16 1.3M
20260503T00Z_MSC_CAPS_WindDir_IsbL-0050_RLatLon0.03_PT035H.grib2 2026-05-03 06:16 1.0M
20260503T00Z_MSC_CAPS_WindDir_IsbL-0100_RLatLon0.03_PT035H.grib2 2026-05-03 06:16 1.0M
20260503T00Z_MSC_CAPS_WindDir_IsbL-0150_RLatLon0.03_PT035H.grib2 2026-05-03 06:16 1.1M
20260503T00Z_MSC_CAPS_WindDir_IsbL-0175_RLatLon0.03_PT035H.grib2 2026-05-03 06:16 1.1M
20260503T00Z_MSC_CAPS_WindDir_IsbL-0200_RLatLon0.03_PT035H.grib2 2026-05-03 06:16 1.1M
20260503T00Z_MSC_CAPS_WindDir_IsbL-0225_RLatLon0.03_PT035H.grib2 2026-05-03 06:16 1.1M
20260503T00Z_MSC_CAPS_WindDir_IsbL-0250_RLatLon0.03_PT035H.grib2 2026-05-03 06:16 1.1M
20260503T00Z_MSC_CAPS_WindDir_IsbL-0275_RLatLon0.03_PT035H.grib2 2026-05-03 06:16 1.1M
20260503T00Z_MSC_CAPS_WindDir_IsbL-0300_RLatLon0.03_PT035H.grib2 2026-05-03 06:16 1.1M
20260503T00Z_MSC_CAPS_WindDir_IsbL-0350_RLatLon0.03_PT035H.grib2 2026-05-03 06:16 1.1M
20260503T00Z_MSC_CAPS_WindDir_IsbL-0400_RLatLon0.03_PT035H.grib2 2026-05-03 06:16 1.1M
20260503T00Z_MSC_CAPS_WindDir_IsbL-0450_RLatLon0.03_PT035H.grib2 2026-05-03 06:16 1.2M
20260503T00Z_MSC_CAPS_WindDir_IsbL-0500_RLatLon0.03_PT035H.grib2 2026-05-03 06:16 1.2M
20260503T00Z_MSC_CAPS_WindDir_IsbL-0550_RLatLon0.03_PT035H.grib2 2026-05-03 06:16 1.2M
20260503T00Z_MSC_CAPS_WindDir_IsbL-0600_RLatLon0.03_PT035H.grib2 2026-05-03 06:16 1.2M
20260503T00Z_MSC_CAPS_WindDir_IsbL-0650_RLatLon0.03_PT035H.grib2 2026-05-03 06:16 1.3M
20260503T00Z_MSC_CAPS_WindDir_IsbL-0700_RLatLon0.03_PT035H.grib2 2026-05-03 06:16 1.4M
20260503T00Z_MSC_CAPS_WindDir_IsbL-0750_RLatLon0.03_PT035H.grib2 2026-05-03 06:16 1.5M
20260503T00Z_MSC_CAPS_WindDir_IsbL-0800_RLatLon0.03_PT035H.grib2 2026-05-03 06:16 1.6M
20260503T00Z_MSC_CAPS_WindDir_IsbL-0850_RLatLon0.03_PT035H.grib2 2026-05-03 06:16 1.8M
20260503T00Z_MSC_CAPS_WindDir_IsbL-0875_RLatLon0.03_PT035H.grib2 2026-05-03 06:16 1.8M
20260503T00Z_MSC_CAPS_WindDir_IsbL-0900_RLatLon0.03_PT035H.grib2 2026-05-03 06:16 1.9M
20260503T00Z_MSC_CAPS_WindDir_IsbL-0925_RLatLon0.03_PT035H.grib2 2026-05-03 06:16 2.0M
20260503T00Z_MSC_CAPS_WindDir_IsbL-0950_RLatLon0.03_PT035H.grib2 2026-05-03 06:16 2.0M
20260503T00Z_MSC_CAPS_WindDir_IsbL-0970_RLatLon0.03_PT035H.grib2 2026-05-03 06:16 2.1M
20260503T00Z_MSC_CAPS_WindDir_IsbL-0985_RLatLon0.03_PT035H.grib2 2026-05-03 06:16 2.2M
20260503T00Z_MSC_CAPS_WindDir_IsbL-1000_RLatLon0.03_PT035H.grib2 2026-05-03 06:16 2.3M
20260503T00Z_MSC_CAPS_WindDir_IsbL-1015_RLatLon0.03_PT035H.grib2 2026-05-03 06:16 2.4M
20260503T00Z_MSC_CAPS_WindGust-Max_AGL-10m_RLatLon0.03_PT035H.grib2 2026-05-03 06:16 2.5M
20260503T00Z_MSC_CAPS_WindGust-Min_AGL-10m_RLatLon0.03_PT035H.grib2 2026-05-03 06:16 2.4M
20260503T00Z_MSC_CAPS_WindGust_AGL-10m_RLatLon0.03_PT035H.grib2 2026-05-03 06:16 2.5M
20260503T00Z_MSC_CAPS_WindSpeed_AGL-10m_RLatLon0.03_PT035H.grib2 2026-05-03 06:16 2.1M
20260503T00Z_MSC_CAPS_WindSpeed_AGL-120m_RLatLon0.03_PT035H.grib2 2026-05-03 06:16 1.1M
20260503T00Z_MSC_CAPS_WindSpeed_AGL-40m_RLatLon0.03_PT035H.grib2 2026-05-03 06:16 1.2M
20260503T00Z_MSC_CAPS_WindSpeed_AGL-80m_RLatLon0.03_PT035H.grib2 2026-05-03 06:16 1.2M
20260503T00Z_MSC_CAPS_WindSpeed_IsbL-0050_RLatLon0.03_PT035H.grib2 2026-05-03 06:16 1.1M
20260503T00Z_MSC_CAPS_WindSpeed_IsbL-0100_RLatLon0.03_PT035H.grib2 2026-05-03 06:16 1.0M
20260503T00Z_MSC_CAPS_WindSpeed_IsbL-0150_RLatLon0.03_PT035H.grib2 2026-05-03 06:16 1.2M
20260503T00Z_MSC_CAPS_WindSpeed_IsbL-0175_RLatLon0.03_PT035H.grib2 2026-05-03 06:16 1.1M
20260503T00Z_MSC_CAPS_WindSpeed_IsbL-0200_RLatLon0.03_PT035H.grib2 2026-05-03 06:16 936K
20260503T00Z_MSC_CAPS_WindSpeed_IsbL-0225_RLatLon0.03_PT035H.grib2 2026-05-03 06:16 956K
20260503T00Z_MSC_CAPS_WindSpeed_IsbL-0250_RLatLon0.03_PT035H.grib2 2026-05-03 06:16 1.0M
20260503T00Z_MSC_CAPS_WindSpeed_IsbL-0275_RLatLon0.03_PT035H.grib2 2026-05-03 06:16 1.0M
20260503T00Z_MSC_CAPS_WindSpeed_IsbL-0300_RLatLon0.03_PT035H.grib2 2026-05-03 06:16 1.0M
20260503T00Z_MSC_CAPS_WindSpeed_IsbL-0350_RLatLon0.03_PT035H.grib2 2026-05-03 06:16 1.0M
20260503T00Z_MSC_CAPS_WindSpeed_IsbL-0400_RLatLon0.03_PT035H.grib2 2026-05-03 06:16 1.0M
20260503T00Z_MSC_CAPS_WindSpeed_IsbL-0450_RLatLon0.03_PT035H.grib2 2026-05-03 06:16 1.0M
20260503T00Z_MSC_CAPS_WindSpeed_IsbL-0500_RLatLon0.03_PT035H.grib2 2026-05-03 06:16 1.4M
20260503T00Z_MSC_CAPS_WindSpeed_IsbL-0550_RLatLon0.03_PT035H.grib2 2026-05-03 06:16 1.4M
20260503T00Z_MSC_CAPS_WindSpeed_IsbL-0600_RLatLon0.03_PT035H.grib2 2026-05-03 06:16 1.3M
20260503T00Z_MSC_CAPS_WindSpeed_IsbL-0650_RLatLon0.03_PT035H.grib2 2026-05-03 06:16 1.5M
20260503T00Z_MSC_CAPS_WindSpeed_IsbL-0700_RLatLon0.03_PT035H.grib2 2026-05-03 06:16 1.5M
20260503T00Z_MSC_CAPS_WindSpeed_IsbL-0750_RLatLon0.03_PT035H.grib2 2026-05-03 06:16 1.6M
20260503T00Z_MSC_CAPS_WindSpeed_IsbL-0800_RLatLon0.03_PT035H.grib2 2026-05-03 06:16 1.6M
20260503T00Z_MSC_CAPS_WindSpeed_IsbL-0850_RLatLon0.03_PT035H.grib2 2026-05-03 06:16 1.7M
20260503T00Z_MSC_CAPS_WindSpeed_IsbL-0875_RLatLon0.03_PT035H.grib2 2026-05-03 06:16 1.8M
20260503T00Z_MSC_CAPS_WindSpeed_IsbL-0900_RLatLon0.03_PT035H.grib2 2026-05-03 06:16 1.8M
20260503T00Z_MSC_CAPS_WindSpeed_IsbL-0925_RLatLon0.03_PT035H.grib2 2026-05-03 06:16 1.9M
20260503T00Z_MSC_CAPS_WindSpeed_IsbL-0950_RLatLon0.03_PT035H.grib2 2026-05-03 06:16 1.9M
20260503T00Z_MSC_CAPS_WindSpeed_IsbL-0970_RLatLon0.03_PT035H.grib2 2026-05-03 06:16 2.0M
20260503T00Z_MSC_CAPS_WindSpeed_IsbL-0985_RLatLon0.03_PT035H.grib2 2026-05-03 06:16 2.1M
20260503T00Z_MSC_CAPS_WindSpeed_IsbL-1000_RLatLon0.03_PT035H.grib2 2026-05-03 06:16 2.1M
20260503T00Z_MSC_CAPS_WindSpeed_IsbL-1015_RLatLon0.03_PT035H.grib2 2026-05-03 06:16 2.1M
20260503T00Z_MSC_CAPS_WindU_AGL-10m_RLatLon0.03_PT035H.grib2 2026-05-03 06:16 2.0M
20260503T00Z_MSC_CAPS_WindU_AGL-120m_RLatLon0.03_PT035H.grib2 2026-05-03 06:16 1.2M
20260503T00Z_MSC_CAPS_WindU_AGL-40m_RLatLon0.03_PT035H.grib2 2026-05-03 06:16 1.2M
20260503T00Z_MSC_CAPS_WindU_AGL-80m_RLatLon0.03_PT035H.grib2 2026-05-03 06:16 1.2M
20260503T00Z_MSC_CAPS_WindU_IsbL-0050_RLatLon0.03_PT035H.grib2 2026-05-03 06:16 760K
20260503T00Z_MSC_CAPS_WindU_IsbL-0100_RLatLon0.03_PT035H.grib2 2026-05-03 06:16 810K
20260503T00Z_MSC_CAPS_WindU_IsbL-0150_RLatLon0.03_PT035H.grib2 2026-05-03 06:16 925K
20260503T00Z_MSC_CAPS_WindU_IsbL-0175_RLatLon0.03_PT035H.grib2 2026-05-03 06:16 725K
20260503T00Z_MSC_CAPS_WindU_IsbL-0200_RLatLon0.03_PT035H.grib2 2026-05-03 06:16 868K
20260503T00Z_MSC_CAPS_WindU_IsbL-0225_RLatLon0.03_PT035H.grib2 2026-05-03 06:16 892K
20260503T00Z_MSC_CAPS_WindU_IsbL-0250_RLatLon0.03_PT035H.grib2 2026-05-03 06:16 912K
20260503T00Z_MSC_CAPS_WindU_IsbL-0275_RLatLon0.03_PT035H.grib2 2026-05-03 06:16 916K
20260503T00Z_MSC_CAPS_WindU_IsbL-0300_RLatLon0.03_PT035H.grib2 2026-05-03 06:16 921K
20260503T00Z_MSC_CAPS_WindU_IsbL-0350_RLatLon0.03_PT035H.grib2 2026-05-03 06:16 932K
20260503T00Z_MSC_CAPS_WindU_IsbL-0400_RLatLon0.03_PT035H.grib2 2026-05-03 06:16 943K
20260503T00Z_MSC_CAPS_WindU_IsbL-0450_RLatLon0.03_PT035H.grib2 2026-05-03 06:16 970K
20260503T00Z_MSC_CAPS_WindU_IsbL-0500_RLatLon0.03_PT035H.grib2 2026-05-03 06:16 1.0M
20260503T00Z_MSC_CAPS_WindU_IsbL-0550_RLatLon0.03_PT035H.grib2 2026-05-03 06:16 929K
20260503T00Z_MSC_CAPS_WindU_IsbL-0600_RLatLon0.03_PT035H.grib2 2026-05-03 06:16 956K
20260503T00Z_MSC_CAPS_WindU_IsbL-0650_RLatLon0.03_PT035H.grib2 2026-05-03 06:16 1.0M
20260503T00Z_MSC_CAPS_WindU_IsbL-0700_RLatLon0.03_PT035H.grib2 2026-05-03 06:16 1.0M
20260503T00Z_MSC_CAPS_WindU_IsbL-0750_RLatLon0.03_PT035H.grib2 2026-05-03 06:16 1.1M
20260503T00Z_MSC_CAPS_WindU_IsbL-0800_RLatLon0.03_PT035H.grib2 2026-05-03 06:16 1.1M
20260503T00Z_MSC_CAPS_WindU_IsbL-0850_RLatLon0.03_PT035H.grib2 2026-05-03 06:16 1.2M
20260503T00Z_MSC_CAPS_WindU_IsbL-0875_RLatLon0.03_PT035H.grib2 2026-05-03 06:16 1.3M
20260503T00Z_MSC_CAPS_WindU_IsbL-0900_RLatLon0.03_PT035H.grib2 2026-05-03 06:16 1.3M
20260503T00Z_MSC_CAPS_WindU_IsbL-0925_RLatLon0.03_PT035H.grib2 2026-05-03 06:16 1.3M
20260503T00Z_MSC_CAPS_WindU_IsbL-0950_RLatLon0.03_PT035H.grib2 2026-05-03 06:16 1.4M
20260503T00Z_MSC_CAPS_WindU_IsbL-0970_RLatLon0.03_PT035H.grib2 2026-05-03 06:16 1.4M
20260503T00Z_MSC_CAPS_WindU_IsbL-0985_RLatLon0.03_PT035H.grib2 2026-05-03 06:16 1.8M
20260503T00Z_MSC_CAPS_WindU_IsbL-1000_RLatLon0.03_PT035H.grib2 2026-05-03 06:16 1.9M
20260503T00Z_MSC_CAPS_WindU_IsbL-1015_RLatLon0.03_PT035H.grib2 2026-05-03 06:16 1.9M
20260503T00Z_MSC_CAPS_WindV_AGL-10m_RLatLon0.03_PT035H.grib2 2026-05-03 06:16 1.9M
20260503T00Z_MSC_CAPS_WindV_AGL-120m_RLatLon0.03_PT035H.grib2 2026-05-03 06:16 907K
20260503T00Z_MSC_CAPS_WindV_AGL-40m_RLatLon0.03_PT035H.grib2 2026-05-03 06:16 1.2M
20260503T00Z_MSC_CAPS_WindV_AGL-80m_RLatLon0.03_PT035H.grib2 2026-05-03 06:16 915K
20260503T00Z_MSC_CAPS_WindV_IsbL-0050_RLatLon0.03_PT035H.grib2 2026-05-03 06:16 760K
20260503T00Z_MSC_CAPS_WindV_IsbL-0100_RLatLon0.03_PT035H.grib2 2026-05-03 06:16 1.0M
20260503T00Z_MSC_CAPS_WindV_IsbL-0150_RLatLon0.03_PT035H.grib2 2026-05-03 06:16 835K
20260503T00Z_MSC_CAPS_WindV_IsbL-0175_RLatLon0.03_PT035H.grib2 2026-05-03 06:16 845K
20260503T00Z_MSC_CAPS_WindV_IsbL-0200_RLatLon0.03_PT035H.grib2 2026-05-03 06:16 866K
20260503T00Z_MSC_CAPS_WindV_IsbL-0225_RLatLon0.03_PT035H.grib2 2026-05-03 06:16 886K
20260503T00Z_MSC_CAPS_WindV_IsbL-0250_RLatLon0.03_PT035H.grib2 2026-05-03 06:16 695K
20260503T00Z_MSC_CAPS_WindV_IsbL-0275_RLatLon0.03_PT035H.grib2 2026-05-03 06:16 705K
20260503T00Z_MSC_CAPS_WindV_IsbL-0300_RLatLon0.03_PT035H.grib2 2026-05-03 06:16 713K
20260503T00Z_MSC_CAPS_WindV_IsbL-0350_RLatLon0.03_PT035H.grib2 2026-05-03 06:16 721K
20260503T00Z_MSC_CAPS_WindV_IsbL-0400_RLatLon0.03_PT035H.grib2 2026-05-03 06:16 943K
20260503T00Z_MSC_CAPS_WindV_IsbL-0450_RLatLon0.03_PT035H.grib2 2026-05-03 06:16 969K
20260503T00Z_MSC_CAPS_WindV_IsbL-0500_RLatLon0.03_PT035H.grib2 2026-05-03 06:16 1.0M
20260503T00Z_MSC_CAPS_WindV_IsbL-0550_RLatLon0.03_PT035H.grib2 2026-05-03 06:16 1.0M
20260503T00Z_MSC_CAPS_WindV_IsbL-0600_RLatLon0.03_PT035H.grib2 2026-05-03 06:16 953K
20260503T00Z_MSC_CAPS_WindV_IsbL-0650_RLatLon0.03_PT035H.grib2 2026-05-03 06:16 1.0M
20260503T00Z_MSC_CAPS_WindV_IsbL-0700_RLatLon0.03_PT035H.grib2 2026-05-03 06:16 1.0M
20260503T00Z_MSC_CAPS_WindV_IsbL-0750_RLatLon0.03_PT035H.grib2 2026-05-03 06:16 1.1M
20260503T00Z_MSC_CAPS_WindV_IsbL-0800_RLatLon0.03_PT035H.grib2 2026-05-03 06:16 1.1M
20260503T00Z_MSC_CAPS_WindV_IsbL-0850_RLatLon0.03_PT035H.grib2 2026-05-03 06:16 1.2M
20260503T00Z_MSC_CAPS_WindV_IsbL-0875_RLatLon0.03_PT035H.grib2 2026-05-03 06:16 1.2M
20260503T00Z_MSC_CAPS_WindV_IsbL-0900_RLatLon0.03_PT035H.grib2 2026-05-03 06:16 1.3M
20260503T00Z_MSC_CAPS_WindV_IsbL-0925_RLatLon0.03_PT035H.grib2 2026-05-03 06:16 1.3M
20260503T00Z_MSC_CAPS_WindV_IsbL-0950_RLatLon0.03_PT035H.grib2 2026-05-03 06:16 1.4M
20260503T00Z_MSC_CAPS_WindV_IsbL-0970_RLatLon0.03_PT035H.grib2 2026-05-03 06:16 1.4M
20260503T00Z_MSC_CAPS_WindV_IsbL-0985_RLatLon0.03_PT035H.grib2 2026-05-03 06:16 1.4M
20260503T00Z_MSC_CAPS_WindV_IsbL-1000_RLatLon0.03_PT035H.grib2 2026-05-03 06:16 1.8M
20260503T00Z_MSC_CAPS_WindV_IsbL-1015_RLatLon0.03_PT035H.grib2 2026-05-03 06:16 1.9M